COSMOS 252 DEB *, 3686

Orbit data source: Space-Track

COSMOS 252 DEB *, 3686 is space debris in LEO originally from a launch on Fri, 01 Nov 1968 UTC launched from the Tyuratam Missile And Space Complex (TTMTR). Debris objects in space refer to the collection of defunct objects orbiting the Earth. Examples of debris include non-operational satellites, rocket bodies, and fragments generated from explosions, collisions, or faulty payload assembly.

Loading next visibility...
Identifier
3686, 1968-097AD
Orbit
LEO
Country
Flag of CISCIS
Related business
Manufacturer
Unknown
Mission
Spacecraft
Bus & Motor
Unknown
Mass
Unknown
Launch date (UTC)
1968-11-01 (57 years ago)
Launch vehicle
Unknown
Launch site
Tyuratam Missile And Space Complex (TTMTR)
Object type
Payload
Rocket body
Debris
Shape & HBR
Unknown
Radar Cross Section
Small (<0.1 m²)

Expand to show TLE details & history
Last TLE update: 15 hours ago

TLE from 15 hours ago
0 COSMOS 252 DEB *
1 03686U 68097AD  25260.86393832  .00004003  00000-0  35074-2 0  9998
2 03686  62.2576  79.8093 0656376 110.7253 256.5337 13.16421152660897
Epoch: 2025-09-17T20:44Z
TLE epoch observation values (Epoch: 2025-09-17T20:44:04.27Z)
Latitude
-0.00003°
Longitude
131.75772°
Altitude
1,346.005 km
Speed
7.116 km/s
True Right ascension
05h 19m 14s
True Declination
0° 00' 00"
Sunlit
Object was in daylight at epoch
Visualization orbit readout
Latitude
Unknown
Longitude
Unknown
Altitude
Unknown
Speed
Unknown
Apparent Right ascension
Unknown
Apparent Declination
Unknown
Sunlit
N/A
Visualization observer readout
Local Sidereal Time
04:18:34
Azimuth
Unknown
Elevation
Unknown
Doppler factor
Unknown
Orbital elements
Apogee altitude
1,694.642 km
Perigee altitude
700.162 km
Semi-major axis
7,575.539 km
Eccentricity
0.06564
Inclination
62.2576°
RAAN
79.8093°
Arg. of periapsis
110.7253°
True anomaly
249.37484°
Mean anomaly
256.5337°
Eccentric anomaly
252.93845°
Mean motion
3.29172 °/min
Orbital period
109.37 mins
BSTAR
0.0035074
Loading maneuver chart data...
Computing Atmospheric mass density...

Documentation

Showing up to 5 results
|